#datint,netname,site,siteID,timestamp,IntT,BattV,AirT2,AirT,AirT_Avg,AirT_Max,AirT_Min,RH_Avg,RH_Max,RH_Min,EA_Avg,Td_Avg,Td_Max,Td_Min,WindS_Smp,WindS_Avg,WindD_Avg,WindD_SD,WindS_Max,ETo,ETr,SoilT4,SoilT8,SoilVWC8,SolarW_Avg,wetstate_Avg,wetT_Avg,Precip_accum,Precip_WPG,Precip_TB
15min,AgWx,beryljct,423,07OCT2018:00:00:00,43.3,12.78,42.1,41.7,41.7,41.9,41.6,91,91,90,0.815,39.2,39.3,39.0,3.442,2.4,336,6.7,3.5,0.00001,0.00002,53.2,56.6,23,0,100,42.0,7.50,0.02,0.02
15min,AgWx,beryljct,423,07OCT2018:00:15:00,43.2,12.79,42.2,41.9,41.9,42.1,41.7,90,92,90,0.824,39.3,39.6,39.0,3.968,3.3,347,6.6,4.5,0.00003,0.00004,53.1,56.5,23,0,100,42.1,7.51,0.01,0.01
15min,AgWx,beryljct,423,07OCT2018:00:30:00,43.2,12.79,42.0,41.5,41.6,41.9,41.5,92,92,91,0.817,39.4,39.6,39.2,4.077,4.8,334,5.3,7.0,0.00003,0.00004,53.0,56.8,24,0,100,42.0,7.52,0.01,0.01
15min,AgWx,beryljct,423,07OCT2018:00:45:00,43.0,12.78,41.8,41.2,41.5,41.6,41.2,93,93,92,0.822,39.6,39.8,39.3,3.244,3.1,336,8.4,4.6,0.00001,0.00002,52.8,56.7,24,0,100,41.7,7.53,0.00,0.00
15min,AgWx,beryljct,423,07OCT2018:01:00:00,43.0,12.77,41.9,41.6,41.5,41.7,41.2,94,94,93,0.834,39.7,40.0,39.5,3.31,3.6,334,8.3,4.7,0.00001,0.00002,52.8,56.6,24,0,100,42.1,7.53,0.00,0.00
15min,AgWx,beryljct,423,07OCT2018:01:15:00,43.1,12.77,42.2,41.7,41.7,41.9,41.5,93,94,92,0.823,39.9,40.2,39.5,3.508,3.5,10,14,4.8,0.00002,0.00002,52.6,56.6,24,0,100,42.3,7.53,0.00,0.00
15min,AgWx,beryljct,423,07OCT2018:01:30:00,43.1,12.79,42.3,41.9,41.9,42.1,41.7,89,92,87,0.782,38.9,39.7,38.2,6.73,4.8,22,14,8.3,0.00005,0.00006,52.5,56.3,24,0,100,42.0,7.53,0.00,0.00
15min,AgWx,beryljct,423,07OCT2018:01:45:00,43.0,12.78,41.7,41.0,41.4,41.9,41.0,87,87,86,0.757,37.7,38.3,37.4,7.673,7.9,21,9.8,11.9,0.00008,0.00010,52.4,55.9,23,0,24,41.3,7.53,0.00,0.00
15min,AgWx,beryljct,423,07OCT2018:02:00:00,42.9,12.79,41.3,40.8,40.9,41.1,40.7,87,87,86,0.752,37.2,37.4,37.1,9.34,10.4,23,8.6,14.8,0.00010,0.00011,52.3,55.6,23,0,0,40.9,7.53,0.00,0.00
15min,AgWx,beryljct,423,07OCT2018:02:15:00,42.6,12.78,41.0,40.5,40.6,40.8,40.5,88,89,87,0.754,37.3,37.6,37.1,9.23,8.4,32,6.6,10.7,0.00008,0.00009,52.3,56.3,24,0,48,40.8,7.53,0.00,0.00
15min,AgWx,beryljct,423,07OCT2018:02:30:00,42.3,12.78,40.8,40.3,40.4,40.5,40.3,88,89,88,0.747,37.2,37.4,37.0,11.22,9.4,34,7.9,12.1,0.00008,0.00009,52.2,56.3,24,0,100,40.6,7.53,0.00,0.00
15min,AgWx,beryljct,423,07OCT2018:02:45:00,42.2,12.77,40.6,40.3,40.3,40.4,40.2,87,88,87,0.739,36.8,37.0,36.5,8.4,10.0,30,7.0,12.7,0.00009,0.00010,52.1,55.9,24,0,100,40.4,7.53,0.00,0.00
15min,AgWx,beryljct,423,07OCT2018:03:00:00,42.0,12.78,40.6,40.3,40.3,40.3,40.2,88,88,87,0.745,36.8,37.0,36.7,7.936,9.3,32,9.1,12.5,0.00008,0.00010,52.0,56.1,24,0,100,40.4,7.53,0.00,0.00
15min,AgWx,beryljct,423,07OCT2018:03:15:00,41.8,12.77,40.7,40.3,40.3,40.4,40.2,88,88,87,0.745,36.9,37.1,36.8,6.686,9.4,28,7.3,12.8,0.00008,0.00010,51.9,55.8,24,0,100,40.4,7.53,0.00,0.00
15min,AgWx,beryljct,423,07OCT2018:03:30:00,41.8,12.78,40.7,40.2,40.4,40.5,40.2,89,90,88,0.759,37.3,37.6,37.0,5.305,5.9,43,11,8.8,0.00006,0.00007,51.8,56.0,24,0,100,40.6,7.53,0.00,0.00
15min,AgWx,beryljct,423,07OCT2018:03:45:00,41.8,12.78,40.5,40.1,40.2,40.3,40.1,90,91,90,0.762,37.6,37.8,37.4,3.617,3.9,49,10,5.9,0.00003,0.00004,51.7,55.7,24,0,100,40.6,7.53,0.00,0.00
15min,AgWx,beryljct,423,07OCT2018:04:00:00,41.8,12.77,40.5,40.2,40.2,40.3,40.0,90,91,89,0.762,37.5,37.7,37.3,3.88,3.9,25,9.9,6.1,0.00003,0.00005,51.6,55.9,24,0,100,40.6,7.53,0.00,0.00
15min,AgWx,beryljct,423,07OCT2018:04:15:00,41.7,12.78,40.5,40.2,40.1,40.3,40.0,91,91,90,0.771,37.6,37.9,37.5,2.521,2.9,25,16,4.5,0.00002,0.00003,51.5,55.8,24,0,100,40.6,7.53,0.00,0.01
15min,AgWx,beryljct,423,07OCT2018:04:30:00,41.7,12.76,40.5,40.2,40.2,40.3,40.1,92,93,92,0.783,38.1,38.4,37.9,5.744,3.7,86,16,5.8,0.00002,0.00003,51.5,55.8,24,0,100,40.8,7.53,0.00,0.00
15min,AgWx,beryljct,423,07OCT2018:04:45:00,41.8,12.76,40.4,39.9,40.0,40.2,39.9,93,93,93,0.776,38.2,38.4,38.0,7.651,5.6,87,13,7.7,0.00003,0.00004,51.4,55.7,24,0,100,40.8,7.54,0.00,0.00
15min,AgWx,beryljct,423,07OCT2018:05:00:00,41.7,12.76,40.4,40.0,40.0,40.2,39.9,92,93,91,0.769,37.9,38.1,37.7,4.998,5.8,88,22,8.2,0.00003,0.00005,51.3,55.1,24,0,67,40.7,7.54,0.00,0.00
15min,AgWx,beryljct,423,07OCT2018:05:15:00,41.7,12.76,40.2,39.8,39.9,40.0,39.7,93,93,92,0.770,37.9,38.1,37.7,3.705,4.6,66,14,6.8,0.00002,0.00003,51.2,55.6,24,0,100,40.6,7.54,0.00,0.00
15min,AgWx,beryljct,423,07OCT2018:05:30:00,41.6,12.77,40.3,39.9,39.9,40.0,39.7,93,93,92,0.775,37.9,38.2,37.7,1.951,2.7,51,8.6,5.4,0.00001,0.00002,51.2,55.5,24,0,100,40.6,7.54,0.00,0.00
15min,AgWx,beryljct,423,07OCT2018:05:45:00,41.6,12.77,40.3,39.9,39.9,40.1,39.8,93,93,93,0.777,38.0,38.2,37.8,2.587,2.5,34,8.0,4.1,0.00001,0.00001,51.1,55.5,24,0,100,40.7,7.54,0.00,0.01
15min,AgWx,beryljct,423,07OCT2018:06:00:00,41.6,12.76,40.3,39.9,40.0,40.1,39.9,93,93,93,0.777,38.1,38.3,38.0,3.464,3.1,35,9.8,4.5,0.00001,0.00002,51.0,55.4,24,0,100,40.8,7.55,0.01,0.00
15min,AgWx,beryljct,423,07OCT2018:06:15:00,41.6,12.77,40.4,39.9,40.0,40.2,39.9,93,94,93,0.776,38.2,38.4,38.0,3.31,2.9,23,14,4.8,0.00001,0.00001,51.0,55.4,24,0,100,40.8,7.55,0.01,0.01
15min,AgWx,beryljct,423,07OCT2018:06:30:00,41.6,12.77,40.5,40.2,40.1,40.3,39.9,93,93,92,0.785,38.2,38.4,38.0,2.894,3.7,36,8.4,5.3,0.00002,0.00003,50.9,55.3,24,0,100,40.8,7.56,0.00,0.00
15min,AgWx,beryljct,423,07OCT2018:06:45:00,41.6,12.76,40.6,40.2,40.2,40.3,40.0,92,93,91,0.770,38.2,38.4,37.8,6.533,5.1,34,9.1,8.1,0.00003,0.00004,50.8,55.0,24,0,100,40.8,7.57,0.01,0.01
15min,AgWx,beryljct,423,07OCT2018:07:00:00,41.6,12.76,40.6,40.2,40.2,40.3,40.2,91,91,91,0.766,37.8,38.0,37.7,5.787,6.1,20,15,8.6,0.00010,0.00017,50.8,55.2,24,0,100,40.7,7.57,0.01,0.00
15min,AgWx,beryljct,423,07OCT2018:07:15:00,41.5,12.77,40.7,40.3,40.2,40.3,40.2,90,91,90,0.760,37.7,37.8,37.5,7.059,6.8,13,11,10.5,0.00011,0.00020,50.7,54.9,24,0,100,40.7,7.57,0.00,0.01
15min,AgWx,beryljct,423,07OCT2018:07:30:00,41.5,12.77,40.6,40.1,40.2,40.3,40.1,91,91,90,0.770,37.7,37.9,37.5,5.437,6.6,1.2,7.6,9.2,0.00011,0.00019,50.6,54.6,23,0,100,40.7,7.58,0.01,0.00
15min,AgWx,beryljct,423,07OCT2018:07:45:00,41.5,12.76,40.5,40.1,40.1,40.2,40.1,92,93,91,0.780,38.0,38.2,37.8,3.858,4.7,3.6,6.9,6.3,0.00008,0.00013,50.6,54.5,23,2,100,40.8,7.59,0.01,0.01
15min,AgWx,beryljct,423,07OCT2018:08:00:00,41.5,12.8,40.5,40.2,40.1,40.3,40.1,93,94,93,0.786,38.3,38.5,38.2,4.516,4.4,2.5,6.9,6.5,0.00018,0.00023,50.5,54.0,23,29,100,41.3,7.60,0.01,0.01
15min,AgWx,beryljct,423,07OCT2018:08:15:00,41.7,12.87,41.0,40.8,40.5,40.8,40.2,91,93,89,0.777,38.1,38.4,37.7,6.16,5.9,10,11,9.8,0.00038,0.00046,50.4,54.9,24,81,100,42.1,7.60,0.00,0.00
15min,AgWx,beryljct,423,07OCT2018:08:30:00,41.8,12.87,41.3,40.9,40.9,41.1,40.7,89,90,89,0.774,38.0,38.3,37.7,6.204,6.5,24,9.9,8.1,0.00041,0.00052,50.4,54.9,24,73,100,42.3,7.60,0.00,0.00
15min,AgWx,beryljct,423,07OCT2018:08:45:00,42.1,12.89,41.5,41.2,41.1,41.3,40.9,90,90,89,0.783,38.3,38.6,38.0,6.489,6.5,30,11,9.7,0.00047,0.00057,50.3,54.6,24,87,100,42.7,7.60,0.00,0.00
15min,AgWx,beryljct,423,07OCT2018:09:00:00,42.3,12.89,41.6,41.4,41.3,41.5,41.1,89,90,88,0.796,38.3,38.8,38.0,6.16,7.3,23,15,9.9,0.00046,0.00058,50.3,54.8,24,83,100,42.8,7.60,0.00,0.00
15min,AgWx,beryljct,423,07OCT2018:09:15:00,42.5,12.88,41.6,41.3,41.3,41.5,41.2,90,91,89,0.794,38.5,38.8,38.3,4.713,7.0,31,11,9.0,0.00037,0.00048,50.3,54.2,24,63,100,42.5,7.60,0.00,0.01
15min,AgWx,beryljct,423,07OCT2018:09:30:00,42.6,12.9,41.9,41.8,41.5,41.8,41.3,91,91,90,0.814,39.0,39.3,38.7,5.656,5.5,23,8.1,8.4,0.00042,0.00051,50.2,54.7,24,78,100,43.1,7.60,0.00,0.00
15min,AgWx,beryljct,423,07OCT2018:09:45:00,42.9,12.91,42.3,41.9,41.9,42.1,41.7,90,91,89,0.807,39.2,39.5,38.9,6.335,6.0,22,8.8,8.0,0.00046,0.00056,50.2,54.6,24,83,100,43.5,7.60,0.00,0.00
15min,AgWx,beryljct,423,07OCT2018:10:00:00,43.0,12.92,42.3,42.0,41.9,42.0,41.7,89,90,87,0.788,38.8,39.3,38.4,5.875,5.4,26,8.2,7.9,0.00049,0.00060,50.2,54.6,24,90,67,43.6,7.60,0.00,0.00
15min,AgWx,beryljct,423,07OCT2018:10:15:00,43.4,12.97,42.6,42.3,42.2,42.3,41.9,87,88,86,0.786,38.6,39.1,38.3,5.02,5.1,19,12,9.2,0.00077,0.00090,50.2,54.3,24,150,0,45.3,7.60,0.00,0.00
15min,AgWx,beryljct,423,07OCT2018:10:30:00,43.9,13.07,43.0,42.9,42.6,42.9,42.2,87,88,85,0.808,38.9,39.6,38.1,6.686,5.6,21,11,9.8,0.00097,0.00112,50.2,54.5,24,203,0,47.6,7.60,0.00,0.00
15min,AgWx,beryljct,423,07OCT2018:10:45:00,44.4,13.13,43.4,43.4,43.0,43.5,42.6,86,88,84,0.829,39.2,39.9,38.5,7.168,6.1,36,12,8.6,0.00093,0.00109,50.3,54.5,24,185,0,47.8,7.60,0.00,0.00
15min,AgWx,beryljct,423,07OCT2018:11:00:00,44.7,13.1,43.8,43.8,43.4,43.9,42.9,85,87,84,0.827,39.3,40.3,38.6,5.897,7.4,30,11,11.4,0.00073,0.00091,50.3,54.4,24,133,0,46.7,7.60,0.00,0.00
15min,AgWx,beryljct,423,07OCT2018:11:15:00,45.0,13.13,44.1,44.0,43.8,44.0,43.5,85,87,84,0.845,39.7,40.4,39.0,6.335,6.7,33,10,11.2,0.00081,0.00099,50.4,54.4,24,150,0,47.5,7.60,0.00,0.00
15min,AgWx,beryljct,423,07OCT2018:11:30:00,45.3,13.12,44.3,43.9,44.0,44.1,43.8,85,86,83,0.835,39.7,40.2,39.0,6.993,7.3,37,11,10.1,0.00074,0.00093,50.4,54.4,24,132,0,47.6,7.60,0.00,0.00
15min,AgWx,beryljct,423,07OCT2018:11:45:00,45.4,13.11,44.1,43.6,43.8,44.0,43.6,85,86,83,0.825,39.5,40.1,38.9,10.74,7.3,39,14,11.0,0.00074,0.00092,50.5,54.3,24,128,59,45.7,7.60,0.00,0.00
15min,AgWx,beryljct,423,07OCT2018:12:00:00,45.2,13.13,44.1,43.7,43.7,44.0,43.4,83,85,81,0.794,38.9,39.5,38.3,9.65,9.1,26,15,13.4,0.00066,0.00088,50.6,54.3,24,101,92,44.6,7.61,0.00,0.00
15min,AgWx,beryljct,423,07OCT2018:12:15:00,44.9,13.13,43.9,43.6,43.6,43.8,43.5,82,84,81,0.796,38.6,39.4,38.1,9.16,9.9,13,10,12.8,0.00066,0.00089,50.6,54.3,24,97,97,44.2,7.60,0.00,0.00
15min,AgWx,beryljct,423,07OCT2018:12:30:00,44.8,13.14,44.1,43.9,43.7,43.9,43.6,82,83,81,0.801,38.6,39.0,38.1,11.57,11.1,5.0,7.9,14.7,0.00078,0.00104,50.7,54.3,24,128,73,44.5,7.61,0.00,0.00
15min,AgWx,beryljct,423,07OCT2018:12:45:00,44.8,13.16,44.3,44.1,43.9,44.1,43.8,82,83,80,0.810,38.8,39.3,38.2,12.41,10.2,5.6,9.5,14.3,0.00084,0.00109,50.8,54.2,24,143,79,44.9,7.61,0.00,0.00
15min,AgWx,beryljct,423,07OCT2018:13:00:00,44.8,13.15,44.4,44.0,44.1,44.2,44.0,82,83,80,0.794,38.8,39.3,38.4,8.11,10.2,13,9.4,14.5,0.00078,0.00104,50.8,54.2,24,122,77,44.9,7.61,0.00,0.00
15min,AgWx,beryljct,423,07OCT2018:13:15:00,44.8,13.12,44.6,44.3,44.2,44.4,44.1,81,82,79,0.799,38.7,39.2,38.2,8.15,9.5,18,11,15.9,0.00063,0.00088,50.8,54.2,24,83,22,44.6,7.61,0.00,0.00
15min,AgWx,beryljct,423,07OCT2018:13:30:00,45.0,13.11,44.8,44.6,44.4,44.7,44.2,79,81,78,0.797,38.4,39.0,37.8,10.61,10.1,13,11,15.5,0.00069,0.00097,50.9,54.2,24,87,0,45.9,7.61,0.00,0.00
15min,AgWx,beryljct,423,07OCT2018:13:45:00,45.2,13.1,44.8,44.4,44.5,44.7,44.4,80,81,79,0.783,38.6,38.9,38.2,9.29,10.6,16,12,15.0,0.00070,0.00098,50.9,54.2,24,91,0,46.6,7.61,0.00,0.00
15min,AgWx,beryljct,423,07OCT2018:14:00:00,45.4,13.11,45.0,44.5,44.6,44.9,44.4,81,85,79,0.844,39.2,40.5,38.3,10.28,9.1,16,10,13.0,0.00080,0.00105,50.9,54.2,24,126,0,46.2,7.61,0.00,0.00
15min,AgWx,beryljct,423,07OCT2018:14:15:00,45.6,13.13,44.9,44.6,44.5,44.8,44.3,82,85,79,0.820,39.4,40.2,38.7,6.993,9.7,19,9.7,14.3,0.00080,0.00105,50.9,54.2,24,130,44,45.9,7.61,0.00,0.00
15min,AgWx,beryljct,423,07OCT2018:14:30:00,45.5,13.13,44.8,44.2,44.5,44.7,44.2,84,85,82,0.831,40.0,40.5,39.5,10.08,8.0,28,10,10.8,0.00060,0.00079,50.9,54.2,24,89,100,45.4,7.60,0.00,0.00
15min,AgWx,beryljct,423,07OCT2018:14:45:00,45.4,13.09,44.4,44.2,44.1,44.3,43.9,86,87,84,0.852,40.1,40.7,39.7,5.042,6.8,36,8.3,9.0,0.00050,0.00065,50.9,54.2,24,76,100,45.0,7.61,0.00,0.00
15min,AgWx,beryljct,423,07OCT2018:15:00:00,45.3,13.1,44.7,44.5,44.4,44.6,44.2,85,87,83,0.825,40.2,41.0,39.5,12.45,7.5,24,11,13.3,0.00054,0.00071,50.9,54.2,24,83,100,45.2,7.61,0.01,0.00
15min,AgWx,beryljct,423,07OCT2018:15:15:00,45.1,13.08,44.7,44.4,44.4,44.6,44.3,83,84,82,0.820,39.5,39.8,39.2,8.4,9.6,9.7,9.6,13.4,0.00059,0.00082,51.0,54.2,24,80,100,44.6,7.62,0.01,0.01
15min,AgWx,beryljct,423,07OCT2018:15:30:00,45.0,13.06,44.7,44.3,44.4,44.5,44.2,83,84,82,0.818,39.5,39.8,39.1,9.71,9.1,3.1,13,13.6,0.00056,0.00078,51.0,54.2,24,74,100,44.5,7.63,0.01,0.01
15min,AgWx,beryljct,423,07OCT2018:15:45:00,44.9,13.05,44.7,44.3,44.4,44.4,44.3,83,84,82,0.834,39.6,39.9,39.2,7.41,8.0,2.9,9.1,11.4,0.00057,0.00077,51.0,54.1,24,82,100,44.7,7.64,0.01,0.01
15min,AgWx,beryljct,423,07OCT2018:16:00:00,45.0,13.01,45.0,44.9,44.6,44.9,44.3,84,85,81,0.826,39.9,40.4,39.6,7.673,7.3,358,8.1,11.1,0.00062,0.00080,51.0,54.1,24,95,100,45.2,7.66,0.01,0.01
15min,AgWx,beryljct,423,07OCT2018:16:15:00,45.1,13.05,45.4,45.0,45.0,45.2,44.9,82,83,81,0.826,39.8,40.2,39.4,10.04,8.8,0.2,8.9,11.9,0.00064,0.00088,51.0,54.1,24,93,100,45.3,7.66,0.01,0.01
15min,AgWx,beryljct,423,07OCT2018:16:30:00,45.0,13,45.4,45.0,45.0,45.1,44.9,81,82,79,0.824,39.4,39.9,39.0,9.1,9.3,358,8.4,13.5,0.00056,0.00081,51.0,54.1,24,62,100,44.6,7.67,0.00,0.00
15min,AgWx,beryljct,423,07OCT2018:16:45:00,45.1,12.98,45.5,45.1,45.1,45.2,45.0,81,82,78,0.799,39.5,40.1,38.8,12.08,9.9,357,10,15.8,0.00056,0.00082,51.0,54.1,24,62,6,45.5,7.67,0.00,0.00
15min,AgWx,beryljct,423,07OCT2018:17:00:00,45.3,12.96,45.4,45.1,45.1,45.2,45.0,79,80,78,0.810,38.9,39.2,38.6,13.53,11.4,1.3,9.8,15.6,0.00058,0.00088,51.0,54.1,24,58,0,45.5,7.67,0.00,0.00
15min,AgWx,beryljct,423,07OCT2018:17:15:00,45.4,12.95,45.3,44.9,45.0,45.1,44.8,81,82,79,0.830,39.4,39.9,39.0,10.96,11.1,11,8.6,14.4,0.00049,0.00076,51.0,54.1,24,69,99,44.8,7.67,0.00,0.00
15min,AgWx,beryljct,423,07OCT2018:17:30:00,45.4,12.91,45.2,44.8,44.8,44.9,44.7,83,84,82,0.833,39.9,40.3,39.6,7.738,8.9,15,9.1,12.5,0.00029,0.00049,50.9,54.1,24,64,100,44.9,7.67,0.00,0.00
15min,AgWx,beryljct,423,07OCT2018:17:45:00,45.4,12.91,45.3,45.0,45.0,45.1,44.7,82,84,81,0.821,39.8,40.2,39.4,8.83,7.7,12,9.0,12.6,0.00010,0.00028,50.9,53.8,24,60,17,45.1,7.67,0.00,0.00
15min,AgWx,beryljct,423,07OCT2018:18:00:00,45.4,12.87,45.2,44.7,44.9,45.2,44.7,81,82,79,0.815,39.4,40.0,38.9,10.08,8.0,11,14,12.9,-0.00001,0.00018,50.9,54.1,24,28,79,44.4,7.67,0.00,0.00
15min,AgWx,beryljct,423,07OCT2018:18:15:00,45.3,12.85,44.9,44.4,44.6,44.7,44.4,82,84,81,0.826,39.5,39.9,39.1,6.467,7.5,8.8,7.8,11.9,0.00018,0.00022,50.9,54.1,24,30,100,44.2,7.67,0.00,0.01
15min,AgWx,beryljct,423,07OCT2018:18:30:00,45.0,12.83,45.0,44.7,44.6,44.8,44.4,81,84,79,0.804,39.2,40.1,38.7,6.796,8.5,7.5,7.8,13.1,0.00018,0.00022,50.9,53.6,24,19,49,43.9,7.68,0.00,0.00
15min,AgWx,beryljct,423,07OCT2018:18:45:00,45.0,12.81,45.1,44.5,44.7,44.9,44.5,80,83,79,0.826,39.0,39.6,38.6,5.371,7.9,9.6,7.8,12.3,0.00018,0.00022,50.8,53.6,24,15,57,43.8,7.67,0.00,0.00
15min,AgWx,beryljct,423,07OCT2018:19:00:00,44.9,12.8,44.7,44.2,44.4,44.6,44.2,83,84,81,0.828,39.4,39.7,39.1,5.787,6.3,15,11,8.7,0.00013,0.00017,50.8,52.8,23,6,100,43.7,7.68,0.01,0.00
15min,AgWx,beryljct,423,07OCT2018:19:15:00,44.8,12.78,44.3,44.0,44.0,44.2,43.9,85,86,84,0.838,39.9,40.1,39.7,4.099,5.4,30,8.3,7.1,0.00010,0.00013,50.8,53.8,24,1,100,43.6,7.69,0.01,0.01
15min,AgWx,beryljct,423,07OCT2018:19:30:00,44.6,12.78,44.2,43.9,43.9,44.0,43.7,86,87,86,0.834,40.1,40.2,39.8,3.091,3.7,37,5.8,5.8,0.00007,0.00010,50.8,53.8,24,0,100,43.5,7.70,0.01,0.01
15min,AgWx,beryljct,423,07OCT2018:19:45:00,44.5,12.79,44.5,44.1,44.1,44.3,43.9,84,86,83,0.830,39.7,40.1,39.5,2.477,2.7,28,6.2,3.8,0.00007,0.00010,50.7,53.7,24,0,100,43.4,7.70,0.00,0.00
15min,AgWx,beryljct,423,07OCT2018:20:00:00,44.4,12.77,44.3,44.0,43.9,44.1,43.8,86,87,85,0.836,39.9,40.2,39.8,1.578,1.8,22,3.5,2.6,0.00005,0.00007,50.7,53.7,24,0,64,43.4,7.70,0.00,0.00
15min,AgWx,beryljct,423,07OCT2018:20:15:00,44.3,12.77,44.3,44.3,43.9,44.3,43.5,85,88,82,0.813,39.8,40.2,39.1,0.482,0.6,25,18,1.9,0.00002,0.00004,50.6,53.2,23,0,0,43.1,7.70,0.00,0.00
15min,AgWx,beryljct,423,07OCT2018:20:30:00,44.2,12.78,44.0,43.5,43.8,44.4,43.4,88,90,82,0.865,40.4,41.0,39.1,3.003,1.7,138,21,3.4,0.00004,0.00006,50.6,53.7,24,0,0,43.2,7.70,0.00,0.00
15min,AgWx,beryljct,423,07OCT2018:20:45:00,44.1,12.78,43.1,42.4,43.0,43.5,42.4,91,93,90,0.855,40.6,40.9,40.4,2.762,2.6,186,20,3.5,0.00004,0.00005,50.5,53.9,24,0,0,42.9,7.70,0.00,0.00
15min,AgWx,beryljct,423,07OCT2018:21:00:00,43.9,12.76,42.8,42.4,42.5,42.7,42.3,93,93,92,0.846,40.5,40.7,40.2,3.047,2.9,200,7.6,3.2,0.00003,0.00005,50.5,53.2,23,0,0,42.5,7.70,0.00,0.00
15min,AgWx,beryljct,423,07OCT2018:21:15:00,43.7,12.78,43.0,42.9,42.5,42.9,42.2,92,93,90,0.841,40.2,40.6,40.1,2.981,3.0,198,12,4.3,0.00004,0.00006,50.5,52.7,23,0,0,42.4,7.70,0.00,0.00
15min,AgWx,beryljct,423,07OCT2018:21:30:00,43.6,12.76,43.3,43.0,42.9,43.2,42.5,89,91,88,0.840,39.9,40.2,39.8,1.381,1.6,198,4.6,3.3,0.00003,0.00005,50.4,52.9,23,0,0,42.6,7.70,0.00,0.00
15min,AgWx,beryljct,423,07OCT2018:21:45:00,43.5,12.77,43.4,42.8,43.1,43.4,42.8,89,91,88,0.846,40.1,40.3,39.9,2.039,1.4,180,2.2,2.5,0.00003,0.00005,50.4,53.6,24,0,0,42.4,7.70,0.00,0.00
15min,AgWx,beryljct,423,07OCT2018:22:00:00,43.3,12.78,44.1,44.7,43.5,44.7,42.5,85,91,78,0.781,39.2,40.4,38.2,2.433,1.5,353,76,3.2,0.00005,0.00007,50.3,53.8,24,0,0,41.6,7.70,0.00,0.00
15min,AgWx,beryljct,423,07OCT2018:22:15:00,42.8,12.77,44.1,43.5,43.9,44.8,43.5,80,81,77,0.764,38.1,38.4,37.5,3.464,1.9,359,18,3.8,0.00007,0.00011,50.3,53.3,24,0,0,40.8,7.70,0.00,0.00
15min,AgWx,beryljct,423,07OCT2018:22:30:00,42.3,12.78,42.5,42.0,42.3,43.5,41.2,81,83,80,0.732,37.0,38.0,36.2,6.708,4.3,336,11,7.0,0.00010,0.00014,50.2,53.3,24,0,0,40.2,7.70,0.00,0.00
15min,AgWx,beryljct,423,07OCT2018:22:45:00,42.0,12.78,43.3,42.5,42.8,43.2,42.0,79,81,78,0.745,36.8,37.0,36.5,5.196,6.1,342,5.9,7.7,0.00014,0.00018,50.1,53.3,24,0,0,41.7,7.70,0.00,0.00
15min,AgWx,beryljct,423,07OCT2018:23:00:00,42.1,12.76,43.1,43.2,42.6,43.2,42.3,80,81,78,0.738,36.9,37.1,36.8,9.91,7.1,341,5.3,11.8,0.00014,0.00018,50.1,53.2,24,0,0,42.0,7.70,0.00,0.00
15min,AgWx,beryljct,423,07OCT2018:23:15:00,42.6,12.77,44.3,44.0,43.8,44.2,43.2,76,78,75,0.742,36.7,36.9,36.6,8.26,9.7,346,6.6,12.1,0.00020,0.00024,50.0,53.2,24,0,0,43.9,7.70,0.00,0.00
15min,AgWx,beryljct,423,07OCT2018:23:30:00,43.4,12.77,44.5,44.0,44.1,44.3,44.0,76,77,75,0.749,36.9,37.1,36.7,7.651,9.2,339,6.8,11.8,0.00020,0.00025,49.9,53.2,24,0,0,44.5,7.70,0.00,0.00
15min,AgWx,beryljct,423,07OCT2018:23:45:00,43.9,12.76,44.8,45.1,44.3,45.1,44.0,75,77,70,0.711,36.8,37.2,35.7,12.67,9.8,348,12,19.5,0.00022,0.00026,49.8,52.9,23,0,0,45.0,7.70,0.00,0.00
15min,AgWx,beryljct,423,08OCT2018:00:00:00,44.8,12.76,45.7,45.3,45.2,45.4,45.0,70,71,69,0.707,36.0,36.5,35.6,11.66,12.3,357,11,18.3,0.00029,0.00033,49.7,53.6,24,0,0,46.1,7.70,0.00,0.00
15min,AgWx,beryljct,423,08OCT2018:00:15:00,45.2,12.76,45.4,44.7,45.1,45.4,44.7,70,71,68,0.717,35.7,36.1,35.5,6.774,9.3,1.0,9.0,13.5,0.00026,0.00032,49.6,53.6,24,0,0,45.5,7.70,0.00,0.00
15min,AgWx,beryljct,423,08OCT2018:00:30:00,45.3,12.77,44.9,44.5,44.5,44.7,44.4,72,73,71,0.713,36.0,36.3,35.7,6.072,7.6,358,14,9.5,0.00022,0.00027,49.6,53.6,24,0,0,45.0,7.70,0.00,0.00
15min,AgWx,bigpiney,439,07OCT2018:00:00:00,34.1,12.67,32.5,31.7,32.3,33.0,31.3,84,87,81,0.518,27.9,28.5,27.4,1.184,0.9,233,54,1.7,-0.00018,-0.00026,43.6,46.0,30,0,0,0.0,.,0.00,0.00
15min,AgWx,bigpiney,439,07OCT2018:00:15:00,34.4,12.66,31.7,31.4,31.4,32.4,30.9,87,89,84,0.524,28.0,28.5,27.3,1.732,1.9,218,9.6,2.7,-0.00014,-0.00018,43.5,46.0,30,0,0,0.0,.,0.00,0.00
15min,AgWx,bigpiney,439,07OCT2018:00:30:00,34.6,12.65,32.2,31.7,31.8,32.1,31.4,87,88,86,0.522,28.3,28.5,28.1,3.003,2.3,205,8.0,3.6,-0.00012,-0.00015,43.5,46.0,30,0,0,0.0,.,0.00,0.00
15min,AgWx,bigpiney,439,07OCT2018:00:45:00,34.7,12.65,32.2,31.3,31.8,32.7,31.3,87,89,83,0.527,28.3,28.7,27.9,2.587,2.9,209,7.2,4.0,-0.00011,-0.00013,43.4,46.0,30,0,0,0.0,.,0.00,0.00
15min,AgWx,bigpiney,439,07OCT2018:01:00:00,34.9,12.63,32.8,33.1,32.3,33.1,31.3,86,89,83,0.528,28.6,29.0,28.4,2.938,3.1,237,11,3.9,-0.00010,-0.00012,43.3,45.9,30,0,0,0.0,.,0.00,0.00
15min,AgWx,bigpiney,439,07OCT2018:01:15:00,35.1,12.63,33.7,33.4,33.3,33.5,33.0,83,85,82,0.544,28.7,29.2,28.4,2.389,2.3,275,17,2.8,-0.00012,-0.00015,43.3,46.0,30,0,0,0.0,.,0.00,0.00
15min,AgWx,bigpiney,439,07OCT2018:01:30:00,35.4,12.61,34.1,34.1,33.6,34.1,33.3,84,85,83,0.550,29.4,29.7,29.1,3.749,2.1,309,11,3.9,-0.00013,-0.00016,43.2,46.0,30,0,0,0.0,.,0.00,0.00
15min,AgWx,bigpiney,439,07OCT2018:01:45:00,35.7,12.62,35.0,34.7,34.6,34.7,34.3,81,82,80,0.559,29.4,29.8,29.1,1.798,2.5,313,25,3.9,-0.00011,-0.00013,43.2,46.0,30,0,0,0.0,.,0.00,0.00
15min,AgWx,bigpiney,439,07OCT2018:02:00:00,36.0,12.6,35.4,35.0,35.0,35.2,34.7,80,82,80,0.553,29.6,29.8,29.4,1.25,2.0,327,10,3.2,-0.00013,-0.00016,43.2,46.0,30,0,0,0.0,.,0.00,0.00
15min,AgWx,bigpiney,439,07OCT2018:02:15:00,36.3,12.59,35.1,33.4,34.9,35.3,33.4,80,84,80,0.543,29.5,29.7,28.8,0.921,0.8,312,17,2.0,-0.00020,-0.00028,43.1,46.0,30,0,0,0.0,.,0.00,0.00
15min,AgWx,bigpiney,439,07OCT2018:02:30:00,36.4,12.58,34.7,34.3,34.3,35.0,33.4,83,85,81,0.547,29.6,29.8,29.1,0,0.5,260,16,1.4,-0.00022,-0.00032,43.0,45.9,30,0,0,0.0,.,0.00,0.00
15min,AgWx,bigpiney,439,07OCT2018:02:45:00,36.4,12.57,34.9,35.2,34.3,35.2,33.3,82,85,80,0.552,29.4,29.7,28.8,1.841,0.9,305,12,2.4,-0.00019,-0.00027,43.0,45.9,30,0,0,0.0,.,0.00,0.00
15min,AgWx,bigpiney,439,07OCT2018:03:00:00,36.5,12.56,35.2,34.5,34.8,35.3,34.5,81,81,79,0.547,29.5,29.7,29.3,4.253,3.0,326,7.7,5.0,-0.00009,-0.00011,43.0,45.9,30,0,0,0.0,.,0.00,0.00
15min,AgWx,bigpiney,439,07OCT2018:03:15:00,36.6,12.53,35.0,34.7,34.7,34.8,34.5,80,81,79,0.541,29.2,29.4,29.0,4.231,4.2,321,8.3,6.2,-0.00005,-0.00005,42.9,45.9,30,0,0,0.0,.,0.00,0.00
15min,AgWx,bigpiney,439,07OCT2018:03:30:00,36.7,12.52,35.1,35.0,34.7,35.0,34.6,80,80,79,0.545,29.1,29.3,29.0,6.664,4.6,312,7.3,6.7,-0.00004,-0.00004,42.9,45.8,30,0,0,0.0,.,0.00,0.00
15min,AgWx,bigpiney,439,07OCT2018:03:45:00,36.9,12.51,35.6,35.5,35.2,35.5,35.0,77,79,73,0.518,28.6,29.2,27.8,7.256,6.6,315,8.1,10.1,0.00002,0.00003,42.9,45.8,30,0,0,0.0,.,0.00,0.00
15min,AgWx,bigpiney,439,07OCT2018:04:00:00,37.1,12.49,36.0,35.5,35.6,35.7,35.5,73,74,72,0.508,27.7,28.1,27.5,6.796,8.1,321,8.1,10.9,0.00006,0.00009,42.8,45.8,30,0,0,0.0,.,0.00,0.00
15min,AgWx,bigpiney,439,07OCT2018:04:15:00,37.3,12.47,35.8,35.4,35.4,35.6,35.3,72,73,71,0.501,27.2,27.6,27.0,7.826,8.4,319,8.9,11.7,0.00007,0.00010,42.8,45.9,30,0,0,0.0,.,0.00,0.00
15min,AgWx,bigpiney,439,07OCT2018:04:30:00,37.4,12.46,35.5,35.0,35.2,35.4,35.0,72,73,71,0.488,27.0,27.3,26.5,7.738,8.2,317,8.9,11.1,0.00007,0.00009,42.8,45.9,30,0,0,0.0,.,0.00,0.00
15min,AgWx,bigpiney,439,07OCT2018:04:45:00,37.4,12.44,34.9,34.3,34.6,35.0,34.3,72,72,71,0.483,26.4,26.6,26.2,7.541,7.7,310,8.4,12.2,0.00006,0.00009,42.7,45.8,30,0,0,0.0,.,0.00,0.00
15min,AgWx,bigpiney,439,07OCT2018:05:00:00,37.2,12.43,34.6,34.1,34.2,34.3,34.1,72,72,72,0.478,26.1,26.2,25.9,6.094,6.4,309,8.0,8.0,0.00004,0.00006,42.7,45.8,30,0,0,0.0,.,0.00,0.00
15min,AgWx,bigpiney,439,07OCT2018:05:15:00,37.0,12.43,34.8,34.5,34.4,34.5,34.1,71,72,71,0.480,26.0,26.2,25.9,6.138,6.2,307,8.3,8.1,0.00003,0.00006,42.7,45.8,30,0,0,0.0,.,0.00,0.00
15min,AgWx,bigpiney,439,07OCT2018:05:30:00,36.9,12.42,35.1,34.8,34.7,34.8,34.5,71,71,70,0.483,26.2,26.4,26.1,8.46,6.7,306,6.6,9.3,0.00004,0.00007,42.7,45.8,30,0,0,0.0,.,0.00,0.00
15min,AgWx,bigpiney,439,07OCT2018:05:45:00,37.0,12.4,35.6,35.5,35.2,35.5,34.9,70,71,69,0.485,26.3,26.4,26.2,6.971,6.3,319,10,8.2,0.00004,0.00007,42.7,45.7,30,0,0,0.0,.,0.00,0.00
15min,AgWx,bigpiney,439,07OCT2018:06:00:00,37.2,12.41,36.0,35.7,35.6,35.8,35.4,68,69,68,0.483,26.2,26.4,26.2,6.467,5.8,330,9.1,8.6,0.00004,0.00007,42.7,45.7,30,0,0,0.0,.,0.00,0.00
15min,AgWx,bigpiney,439,07OCT2018:06:15:00,37.4,12.4,36.0,35.5,35.7,35.8,35.5,69,69,68,0.488,26.4,26.6,26.2,2.346,4.0,337,18,6.2,-0.00001,0.00000,42.7,45.8,30,0,0,0.0,.,0.00,0.00
15min,AgWx,bigpiney,439,07OCT2018:06:30:00,37.5,12.4,34.6,34.7,34.4,35.5,33.6,73,76,69,0.487,26.6,26.9,26.4,2.039,3.7,96,13,5.3,-0.00004,-0.00004,42.6,45.7,30,0,0,0.0,.,0.00,0.00
15min,AgWx,bigpiney,439,07OCT2018:06:45:00,37.4,12.39,35.4,35.4,34.9,35.4,34.7,70,72,68,0.479,26.3,26.5,26.0,0.986,0.7,77,21,2.1,-0.00019,-0.00028,42.6,45.7,30,0,93,0.0,.,0.00,0.00
15min,AgWx,bigpiney,439,07OCT2018:07:00:00,37.3,12.39,36.0,35.4,35.6,36.0,35.3,67,68,66,0.472,25.9,26.1,25.6,0,0.1,19,2.6,1.5,-0.00027,-0.00042,42.6,45.7,30,0,100,0.0,.,0.00,0.00